| time (UTC) | temp C | wind direction | speed KPH | gust KPH | rain 1hr cm | rain 24hr cm | rain mn cm | humidity % | barometer mb |
| 20260506044933 | 8 | 337 | 0.0 | 0.0 | 0.00 | 0.36 | 0.00 | 36 | 992.2 |
| 20260506043932 | 8 | 337 | 0.0 | 0.0 | 0.00 | 0.36 | 0.00 | 36 | 992.2 |
| 20260506042933 | 8 | 337 | 0.0 | 0.0 | 0.00 | 0.36 | 0.00 | 36 | 992.6 |
| 20260506041931 | 8 | 337 | 0.0 | 0.0 | 0.00 | 0.36 | 0.00 | 36 | 992.6 |
| 20260506040931 | 8 | 337 | 0.0 | 0.0 | 0.00 | 0.36 | 0.00 | 36 | 992.2 |
| 20260506040019 | 8 | 337 | 0.0 | 0.0 | 0.00 | 0.36 | 0.00 | 36 | 992.6 |
| 20260506035017 | 8 | 337 | 0.0 | 0.0 | 0.00 | 0.36 | 0.36 | 36 | 992.6 |
| 20260506033016 | 8 | 112 | 0.0 | 0.0 | 0.00 | 0.36 | 0.36 | 36 | 992.6 |
| 20260506031116 | 8 | 315 | 0.0 | 0.0 | 0.00 | 0.36 | 0.36 | 35 | 992.6 |
| 20260506025117 | 8 | 360 | 0.0 | 0.0 | 0.00 | 0.36 | 0.36 | 35 | 992.9 |
| 20260506024119 | 8 | 337 | 0.0 | 0.0 | 0.03 | 0.36 | 0.36 | 36 | 992.6 |
| 20260506023116 | 8 | 337 | 0.0 | 0.0 | 0.03 | 0.36 | 0.36 | 36 | 992.9 |
| 20260506022215 | 8 | 337 | 0.0 | 0.0 | 0.05 | 0.36 | 0.36 | 36 | 993.2 |
| 20260506021219 | 8 | 337 | 0.0 | 0.0 | 0.05 | 0.36 | 0.36 | 36 | 992.9 |
| 20260506020218 | 8 | 315 | 0.0 | 0.0 | 0.05 | 0.36 | 0.36 | 36 | 992.9 |
| 20260506015315 | 8 | 22 | 0.0 | 0.0 | 0.05 | 0.36 | 0.36 | 36 | 992.9 |
| 20260506014316 | 8 | 22 | 0.0 | 0.0 | 0.03 | 0.33 | 0.33 | 36 | 992.9 |
| 20260506012317 | 9 | 12 | 0.0 | 0.0 | 0.00 | 0.30 | 0.30 | 35 | 992.9 |
| 20260506010415 | 9 | 2 | 0.0 | 3.2 | 0.05 | 0.30 | 0.30 | 36 | 992.9 |
| 20260506005417 | 9 | 350 | 0.0 | 0.0 | 0.08 | 0.30 | 0.30 | 36 | 992.9 |
| 20260506004416 | 10 | 338 | 0.0 | 0.0 | 0.10 | 0.30 | 0.30 | 35 | 992.6 |
| 20260506003417 | 10 | 337 | 0.0 | 0.0 | 0.10 | 0.30 | 0.30 | 35 | 992.9 |
| 20260506002417 | 10 | 13 | 0.0 | 8.0 | 0.10 | 0.30 | 0.30 | 35 | 992.6 |
| 20260506001417 | 11 | 14 | 0.0 | 4.8 | 0.08 | 0.28 | 0.28 | 35 | 992.6 |
| 20260506000418 | 12 | 40 | 4.8 | 20.9 | 0.05 | 0.25 | 0.25 | 36 | 992.2 |
| 20260505235417 | 14 | 345 | 0.0 | 1.6 | 0.03 | 0.23 | 0.23 | 36 | 992.2 |
| 20260505234416 | 15 | 327 | 1.6 | 11.3 | 0.00 | 0.20 | 0.20 | 36 | 991.5 |
| 20260505233418 | 16 | 8 | 0.0 | 8.0 | 0.00 | 0.20 | 0.20 | 37 | 991.5 |
| 20260505232419 | 16 | 342 | 0.0 | 6.4 | 0.00 | 0.20 | 0.20 | 36 | 991.5 |
| 20260505231415 | 17 | 5 | 0.0 | 6.4 | 0.00 | 0.20 | 0.20 | 37 | 991.5 |
| 20260505225419 | 17 | 343 | 0.0 | 0.0 | 0.00 | 0.20 | 0.20 | 41 | 990.8 |
| 20260505224515 | 17 | 337 | 0.0 | 0.0 | 0.00 | 0.20 | 0.20 | 42 | 990.4 |
| 20260505223518 | 17 | 354 | 0.0 | 0.0 | 0.00 | 0.20 | 0.20 | 37 | 990.4 |
| 20260505222518 | 17 | 21 | 0.0 | 3.2 | 0.00 | 0.20 | 0.20 | 36 | 990.1 |
| 20260505221616 | 17 | 46 | 0.0 | 3.2 | 0.00 | 0.20 | 0.20 | 37 | 989.8 |
| 20260505220617 | 17 | 71 | 1.6 | 3.2 | 0.00 | 0.20 | 0.20 | 37 | 989.8 |
| 20260505214617 | 18 | 90 | 1.6 | 3.2 | 0.00 | 0.20 | 0.20 | 42 | 989.4 |
| 20260505213619 | 18 | 90 | 1.6 | 3.2 | 0.03 | 0.20 | 0.20 | 42 | 989.1 |
| 20260505211617 | 19 | 315 | 0.0 | 0.0 | 0.10 | 0.20 | 0.20 | 37 | 989.1 |
| 20260505210617 | 18 | 315 | 0.0 | 0.0 | 0.10 | 0.20 | 0.20 | 37 | 989.1 |
| 20260505205615 | 18 | 315 | 0.0 | 0.0 | 0.10 | 0.20 | 0.20 | 38 | 989.1 |
| 20260505204616 | 17 | 315 | 0.0 | 0.0 | 0.10 | 0.20 | 0.20 | 37 | 989.1 |
| 20260505203617 | 17 | 308 | 0.0 | 4.8 | 0.08 | 0.18 | 0.18 | 37 | 989.8 |
| 20260505202618 | 19 | 302 | 4.8 | 19.3 | 0.03 | 0.13 | 0.13 | 41 | 989.8 |
| 20260505201715 | 19 | 157 | 1.6 | 4.8 | 0.00 | 0.10 | 0.10 | 42 | 989.4 |
| 20260505200715 | 19 | 157 | 3.2 | 9.7 | 0.00 | 0.10 | 0.10 | 42 | 989.4 |
| 20260505195716 | 20 | 170 | 8.0 | 14.5 | 0.00 | 0.10 | 0.10 | 43 | 989.4 |
| 20260505194717 | 20 | 202 | 8.0 | 11.3 | 0.00 | 0.10 | 0.10 | 43 | 989.8 |
| 20260505192816 | 21 | 203 | 8.0 | 12.9 | 0.00 | 0.10 | 0.10 | 44 | 989.8 |
| 20260505191818 | 21 | 232 | 9.7 | 16.1 | 0.00 | 0.10 | 0.10 | 43 | 989.1 |
| 20260505190916 | 21 | 247 | 6.4 | 12.9 | 0.00 | 0.10 | 0.10 | 42 | 989.4 |
| 20260505185917 | 21 | 247 | 9.7 | 19.3 | 0.00 | 0.10 | 0.10 | 43 | 989.4 |
| 20260505184917 | 20 | 239 | 6.4 | 9.7 | 0.03 | 0.10 | 0.10 | 42 | 989.8 |
| 20260505184016 | 20 | 243 | 14.5 | 19.3 | 0.05 | 0.10 | 0.10 | 42 | 989.4 |
| 20260505183016 | 19 | 209 | 4.8 | 9.7 | 0.10 | 0.10 | 0.10 | 42 | 989.1 |
| 20260505182115 | 18 | 251 | 9.7 | 12.9 | 0.10 | 0.10 | 0.10 | 42 | 989.1 |
| 20260505181118 | 17 | 253 | 6.4 | 11.3 | 0.10 | 0.10 | 0.10 | 41 | 989.1 |
| 20260505180216 | 17 | 247 | 1.6 | 9.7 | 0.10 | 0.10 | 0.10 | 42 | 989.1 |
| 20260505175217 | 17 | 294 | 0.0 | 6.4 | 0.10 | 0.10 | 0.08 | 42 | 990.3 |
| 20260505174217 | 18 | 252 | 14.5 | 24.1 | 0.05 | 0.05 | 0.05 | 43 | 990.2 |
| 20260505173218 | 21 | 246 | 9.7 | 14.5 | 0.00 | 0.00 | 0.00 | 43 | 989.5 |
| 20260505172217 | 21 | 226 | 14.5 | 20.9 | 0.00 | 0.00 | 0.00 | 43 | 989.2 |
| 20260505171315 | 22 | 207 | 9.7 | 17.7 | 0.00 | 0.00 | 0.00 | 43 | 989.4 |
| 20260505170318 | 22 | 207 | 12.9 | 17.7 | 0.00 | 0.00 | 0.00 | 43 | 989.4 |
| 20260505165316 | 21 | 230 | 11.3 | 20.9 | 0.00 | 0.00 | 0.00 | 43 | 989.4 |
| 20260505164415 | 21 | 231 | 12.9 | 22.5 | 0.00 | 0.00 | 0.00 | 43 | 989.8 |
| 20260505163417 | 21 | 233 | 20.9 | 30.6 | 0.00 | 0.00 | 0.00 | 43 | 989.8 |
| 20260505162417 | 22 | 239 | 16.1 | 27.4 | 0.00 | 0.00 | 0.00 | 43 | 989.8 |
| 20260505161417 | 22 | 238 | 12.9 | 20.9 | 0.00 | 0.00 | 0.00 | 43 | 989.1 |
| 20260505160417 | 22 | 218 | 9.7 | 12.9 | 0.00 | 0.00 | 0.00 | 43 | 989.1 |
| 20260505152518 | 21 | 240 | 20.9 | 32.2 | 0.00 | 0.00 | 0.00 | 43 | 989.4 |
| 20260505151616 | 21 | 233 | 19.3 | 30.6 | 0.00 | 0.00 | 0.00 | 43 | 989.1 |
| 20260505140618 | 21 | 220 | 12.9 | 19.3 | 0.00 | 0.00 | 0.00 | 43 | 988.7 |
| 20260505124817 | 20 | 192 | 17.7 | 22.5 | 0.00 | 0.00 | 0.00 | 43 | 988.7 |
| 20260505122816 | 19 | 191 | 11.3 | 17.7 | 0.00 | 0.00 | 0.00 | 42 | 988.4 |
| 20260505121815 | 17 | 191 | 8.0 | 14.5 | 0.00 | 0.00 | 0.00 | 42 | 988.7 |
| 20260505120815 | 16 | 182 | 12.9 | 16.1 | 0.00 | 0.00 | 0.00 | 41 | 988.7 |
| 20260505114818 | 16 | 197 | 11.3 | 14.5 | 0.00 | 0.00 | 0.00 | 40 | 988.4 |
| 20260505112817 | 15 | 172 | 11.3 | 16.1 | 0.00 | 0.00 | 0.00 | 40 | 988.4 |
| 20260505111816 | 15 | 200 | 8.0 | 14.5 | 0.00 | 0.00 | 0.00 | 40 | 988.4 |
| 20260505110817 | 15 | 187 | 8.0 | 12.9 | 0.00 | 0.00 | 0.00 | 40 | 988.4 |
| 20260505101020 | 16 | 189 | 6.4 | 12.9 | 0.00 | 0.00 | 0.00 | 41 | 987.7 |
| 20260505100018 | 16 | 183 | 6.4 | 11.3 | 0.00 | 0.00 | 0.00 | 41 | 987.7 |
| 20260505095015 | 16 | 203 | 9.7 | 17.7 | 0.00 | 0.00 | 0.00 | 41 | 987.7 |
| 20260505094017 | 17 | 205 | 16.1 | 24.1 | 0.00 | 0.00 | 0.00 | 41 | 987.4 |
| 20260505093016 | 17 | 198 | 14.5 | 22.5 | 0.00 | 0.00 | 0.00 | 41 | 987.4 |
| 20260505091018 | 15 | 196 | 8.0 | 14.5 | 0.00 | 0.00 | 0.00 | 41 | 987.7 |
| 20260505090015 | 15 | 200 | 6.4 | 9.7 | 0.00 | 0.00 | 0.00 | 41 | 987.7 |
| 20260505085018 | 15 | 197 | 6.4 | 11.3 | 0.00 | 0.00 | 0.00 | 41 | 987.7 |
| 20260505084017 | 15 | 201 | 6.4 | 11.3 | 0.00 | 0.00 | 0.00 | 41 | 987.7 |
| 20260505083018 | 15 | 202 | 8.0 | 12.9 | 0.00 | 0.00 | 0.00 | 40 | 987.7 |
| 20260505082018 | 15 | 197 | 8.0 | 11.3 | 0.00 | 0.00 | 0.00 | 40 | 987.4 |
| 20260505081016 | 16 | 189 | 6.4 | 12.9 | 0.00 | 0.00 | 0.00 | 40 | 987.7 |
| 20260505080017 | 16 | 200 | 8.0 | 14.5 | 0.00 | 0.00 | 0.00 | 40 | 987.7 |
| 20260505075019 | 16 | 202 | 4.8 | 9.7 | 0.00 | 0.00 | 0.00 | 40 | 987.7 |
| 20260505074017 | 15 | 202 | 3.2 | 6.4 | 0.00 | 0.00 | 0.00 | 40 | 987.7 |
| 20260505072016 | 16 | 202 | 1.6 | 3.2 | 0.00 | 0.00 | 0.00 | 40 | 988.0 |
| 20260505071016 | 16 | 202 | 3.2 | 4.8 | 0.00 | 0.00 | 0.00 | 40 | 988.0 |
| 20260505070017 | 15 | 202 | 4.8 | 8.0 | 0.00 | 0.00 | 0.00 | 40 | 988.1 |
| 20260505065019 | 15 | 202 | 4.8 | 9.7 | 0.00 | 0.00 | 0.00 | 39 | 988.0 |
| 20260505064116 | 15 | 204 | 3.2 | 6.4 | 0.00 | 0.00 | 0.00 | 40 | 988.0 |
| 20260505063116 | 15 | 202 | 3.2 | 8.0 | 0.00 | 0.00 | 0.00 | 38 | 988.0 |
| 20260505062118 | 15 | 225 | 3.2 | 6.4 | 0.00 | 0.00 | 0.00 | 39 | 988.0 |
| 20260505061116 | 15 | 203 | 4.8 | 9.7 | 0.00 | 0.00 | 0.00 | 39 | 987.7 |
| 20260505060116 | 15 | 202 | 6.4 | 9.7 | 0.00 | 0.00 | 0.00 | 39 | 988.1 |
| 20260505055118 | 15 | 224 | 8.0 | 14.5 | 0.00 | 0.00 | 0.00 | 39 | 988.1 |
| 20260505054215 | 15 | 226 | 6.4 | 11.3 | 0.00 | 0.00 | 0.00 | 38 | 988.1 |
| 20260505053216 | 15 | 231 | 8.0 | 11.3 | 0.00 | 0.00 | 0.00 | 38 | 988.1 |
| 20260505052216 | 15 | 202 | 4.8 | 8.0 | 0.00 | 0.00 | 0.00 | 38 | 988.4 |
| 20260505051220 | 16 | 202 | 3.2 | 6.4 | 0.00 | 0.00 | 0.00 | 38 | 988.4 |
| 20260505050219 | 16 | 201 | 6.4 | 12.9 | 0.00 | 0.00 | 0.00 | 38 | 988.4 |